Casement, Ireland

4:22 AM GMT on February 08, 2016 (GMT +0000)
Casement Air Base

Weather History for EIME - August, 2014

Change the Weather History Date:

Monday, August 11, 2014

  Actual Average (EIDW) Record (EIDW)
Temperature  
Mean Temperature 58 °F -  
Max Temperature 65 °F 63 °F 73 °F (1997)
Min Temperature 50 °F 49 °F 46 °F (2015)
Degree Days  
Heating Degree Days 8    
Growing Degree Days 8 (Base 50)    
Moisture  
Dew Point 50 °F    
Average Humidity 75    
Maximum Humidity 94    
Minimum Humidity 45    
Precipitation  
Precipitation 0.01 in - - ()
Sea Level Pressure  
Sea Level Pressure 29.61 in    
Wind  
Wind Speed 17 mph ()    
Max Wind Speed 26 mph    
Max Gust Speed 38 mph    
Visibility 10.5 miles    
Events Rain    
Averages and records for this station are not official NWS values.
T = Trace of Precipitation, MM = Missing Value Source: Averaged Metar Reports

Daily Weather History Graph

Daily Weather History Graph

Search for Another Location

Airport or City:

Trip Planner

Search our weather history database for the weather conditions in past years. The results will help you decide how hot, cold, wet, or windy it might be!

Date:

Astronomy

Aug. 11, 2014 Rise Set
Actual Time 5:58 AM IST 9:02 PM IST
Civil Twilight 5:17 AM IST 9:42 PM IST
Nautical Twilight 4:24 AM IST 10:35 PM IST
Astronomical Twilight 3:12 AM IST 11:45 PM IST
Moon 9:00 PM IST (8/11) 7:01 AM IST (8/11)
Length of Visible Light 16h 24m
Length of Day
15h 03m
Full, 99% of the Moon is Illuminated
Aug 11
Full
Aug 17
Last Quarter
Aug 25
New
Sep 2
First Quarter
Sep 9
Full

Hourly Weather History & Observations

Time (IST) Temp. Dew Point Humidity Pressure Visibility Wind Dir Wind Speed Gust Speed Precip Events Conditions
12:00 AM 52 °F 49 °F 86% 29.60 in 19 mi SW 15.7 mph - -   Scattered Clouds
12:00 AM 51.8 °F 50.0 °F 94% 29.59 in 6.2 mi SW 15.0 mph - N/A   Partly Cloudy
1:00 AM 51 °F 49 °F 90% 29.60 in 19 mi SW 17.9 mph - -   Partly Cloudy
1:00 AM 51.8 °F 48.2 °F 88% 29.59 in 6.2 mi SW 17.3 mph - N/A   Partly Cloudy
2:00 AM 51 °F 49 °F 91% 29.60 in 19 mi SW 15.7 mph - -   Scattered Clouds
2:00 AM 51.8 °F 50.0 °F 94% 29.59 in 6.2 mi SW 16.1 mph - N/A   Partly Cloudy
3:00 AM 51 °F 49 °F 92% 29.60 in 19 mi SW 15.7 mph - -   Scattered Clouds
4:00 AM 51 °F 49 °F 92% 29.60 in 19 mi SW 15.7 mph - -   Scattered Clouds
4:00 AM 51.8 °F 50.0 °F 94% 29.59 in 6.2 mi SW 16.1 mph - N/A   Partly Cloudy
5:00 AM 51 °F 49 °F 92% 29.59 in 19 mi SW 17.9 mph - -   Scattered Clouds
6:00 AM 51 °F 49 °F 92% 29.59 in 19 mi SW 17.9 mph - -   Scattered Clouds
7:00 AM 53 °F 50 °F 86% 29.59 in 19 mi SW 17.9 mph - -   Scattered Clouds
7:00 AM 51.8 °F 50.0 °F 94% 29.56 in 6.2 mi SW 17.3 mph - N/A   Partly Cloudy
8:00 AM 54 °F 51 °F 84% 29.59 in 19 mi SW 17.9 mph - -   Partly Cloudy
8:00 AM 53.6 °F 50.0 °F 88% 29.56 in 6.2 mi SW 17.3 mph - N/A   Scattered Clouds
8:30 AM 53.6 °F 51.8 °F 94% 29.59 in 6.2 mi SW 18.4 mph - N/A   Scattered Clouds
9:00 AM 56 °F 52 °F 81% 29.60 in 19 mi SW 20.1 mph - -   Partly Cloudy
9:00 AM 55.4 °F 51.8 °F 88% 29.59 in 6.2 mi SW 19.6 mph - N/A   Scattered Clouds
9:30 AM 57.2 °F 53.6 °F 88% 29.59 in 6.2 mi WSW 19.6 mph - N/A   Mostly Cloudy
10:00 AM 59 °F 53 °F 75% 29.60 in 19 mi SW 20.1 mph - -   Mostly Cloudy
10:00 AM 59.0 °F 53.6 °F 82% 29.59 in 6.2 mi SW 20.7 mph - N/A   Mostly Cloudy
10:30 AM 60.8 °F 53.6 °F 77% 29.59 in 6.2 mi WSW 20.7 mph - N/A   Mostly Cloudy
11:00 AM 62 °F 52 °F 62% 29.60 in 22 mi WSW 22.4 mph - -   Mostly Cloudy
11:00 AM 62.6 °F 51.8 °F 68% 29.59 in 6.2 mi WSW 21.9 mph - N/A   Mostly Cloudy
11:30 AM 60.8 °F 51.8 °F 72% 29.59 in 6.2 mi WSW 24.2 mph - N/A   Scattered Clouds
12:00 PM 62 °F 51 °F 58% 29.61 in 16 mi West 24.6 mph - - Rain Light Rain Showers
12:30 PM 57.2 °F 50.0 °F 77% 29.62 in 6.2 mi WSW 18.4 mph - N/A Rain Light Rain Showers
1:00 PM 61 °F 51 °F 62% 29.62 in 16 mi West 22.4 mph - - Rain Light Rain Showers
1:00 PM 62.6 °F 50.0 °F 63% 29.59 in 6.2 mi West 24.2 mph 35.7 mph N/A   Mostly Cloudy
1:30 PM 64.4 °F 50.0 °F 59% 29.62 in 6.2 mi WSW 25.3 mph - N/A   Scattered Clouds
2:00 PM 64 °F 51 °F 52% 29.62 in 22 mi WSW 22.4 mph - -   Partly Cloudy
2:00 PM 64.4 °F 50.0 °F 59% 29.62 in 6.2 mi WSW 23.0 mph 35.7 mph N/A   Scattered Clouds
2:30 PM 64.4 °F 51.8 °F 64% 29.62 in 6.2 mi WSW 23.0 mph - N/A   Mostly Cloudy
3:00 PM 62 °F 50 °F 55% 29.63 in 19 mi WSW 24.6 mph - - Rain Light Rain Showers
3:00 PM 59.0 °F 48.2 °F 67% 29.62 in 6.2 mi WSW 24.2 mph 38.0 mph N/A Rain Light Rain Showers
3:30 PM 64.4 °F 50.0 °F 59% 29.62 in 6.2 mi WSW 26.5 mph - N/A   Scattered Clouds
4:00 PM 65 °F 49 °F 45% 29.61 in 25 mi WSW 22.4 mph - -   Partly Cloudy
4:00 PM 64.4 °F 50.0 °F 59% 29.62 in 6.2 mi WSW 23.0 mph 35.7 mph N/A   Scattered Clouds
4:30 PM 64.4 °F 51.8 °F 64% 29.62 in 6.2 mi SW 19.6 mph - N/A   Scattered Clouds
5:00 PM 65 °F 49 °F 47% 29.61 in 25 mi SW 20.1 mph - -   Mostly Cloudy
5:00 PM 64.4 °F 51.8 °F 64% 29.59 in 6.2 mi SW 19.6 mph 32.2 mph N/A   Mostly Cloudy
6:00 PM 62 °F 51 °F 58% 29.62 in 19 mi WSW 20.1 mph - - Rain Light Rain Showers
7:00 PM 62 °F 50 °F 55% 29.62 in 25 mi WSW 22.4 mph - -   Partly Cloudy
7:00 PM 60.8 °F 50.0 °F 68% 29.62 in 6.2 mi WSW 21.9 mph 36.8 mph N/A   Mostly Cloudy
8:00 PM 58 °F 49 °F 63% 29.64 in 25 mi WSW 20.1 mph - -   Partly Cloudy
8:00 PM 57.2 °F 50.0 °F 77% 29.62 in 6.2 mi WSW 19.6 mph 35.7 mph N/A   Scattered Clouds
9:00 PM 56 °F 49 °F 72% 29.65 in 25 mi WSW 17.9 mph - -   Partly Cloudy
9:00 PM 55.4 °F 50.0 °F 82% 29.62 in 6.2 mi WSW 18.4 mph - N/A   Scattered Clouds
10:00 PM 54 °F 48 °F 75% 29.66 in 25 mi WSW 15.7 mph - -   Scattered Clouds
10:00 PM 55.4 °F 48.2 °F 77% 29.65 in 6.2 mi WSW 15.0 mph - N/A   Partly Cloudy
11:00 PM 53 °F 49 °F 81% 29.68 in 25 mi SW 13.4 mph - -   Partly Cloudy
11:00 PM 53.6 °F 48.2 °F 82% 29.65 in 6.2 mi SW 12.7 mph - N/A   Scattered Clouds